Wind_Speed
19 18 18 17 17 16 15 14 13 12 11 10 10 9 8 8 7 6 5 4 4 4 3 2 1 0 1 3 4 5 7 8 9 9 10 10 10 11 11 11 12 12 12 13 13 14 14 15 15 16 16 16 17 17 17 17 17 17 17 17 17 17 18 18 18 18 19 19 19
18 17 16 16 15 15 14 13 12 11 10 9 8 8 7 7 6 6 6 5 5 4 3 2 1 1 2 4 5 7 8 9 9 9 10 10 11 11 11 12 12 13 13 14 14 15 15 16 16 16 17 17 17 17 17 17 17 17 17 17 17 17 18 18 18 19 19 19 19
16 15 15 14 13 13 13 12 11 10 9 9 8 8 7 7 7 6 6 6 5 3 2 1 1 2 4 5 7 8 9 9 9 10 10 10 11 11 12 12 13 13 14 14 15 15 15 16 16 17 17 17 17 17 17 17 17 17 17 17 17 18 18 18 18 19 19 19 19
15 14 14 13 13 12 12 11 11 10 10 10 9 9 8 7 7 6 6 5 3 2 1 1 2 4 5 7 8 9 9 9 10 10 10 11 11 12 12 13 13 14 14 15 15 15 16 16 16 16 17 17 17 17 17 17 17 17 17 18 18 18 18 19 19 19 19 19 19
15 14 13 13 12 12 11 11 11 11 11 10 10 9 8 7 6 5 4 3 2 0 1 3 4 5 7 8 9 9 9 9 10 10 11 11 12 12 13 14 14 15 15 15 16 16 16 16 16 16 17 17 17 17 17 17 17 18 18 18 18 19 19 19 19 19 19 20 19
16 15 14 13 13 12 12 11 11 11 11 10 10 9 8 7 5 4 2 1 0 2 3 4 5 7 8 9 9 9 10 10 10 11 11 12 13 13 14 14 15 15 16 16 16 16 16 17 17 17 17 17 17 17 17 18 18 18 19 19 19 19 19 19 19 19 20 20 20
16 16 15 14 13 13 12 12 11 11 10 9 9 7 6 5 3 2 1 1 2 3 4 5 6 8 8 9 10 10 10 10 11 11 12 13 14 14 15 15 15 16 16 16 16 17 17 17 17 18 18 18 18 18 18 18 18 19 19 19 19 19 19 19 19 19 19 20 20
17 16 16 15 14 13 12 11 11 10 9 8 7 5 4 3 2 1 1 1 2 3 5 6 7 8 9 9 10 10 11 11 12 13 13 14 15 15 15 16 16 16 16 17 17 17 17 18 18 18 18 18 18 18 18 18 19 19 19 19 19 19 19 19 19 19 19 19 20
17 16 15 14 14 13 12 11 10 9 8 7 5 4 3 2 1 1 1 2 3 4 6 7 8 9 9 10 10 11 12 12 13 14 14 15 15 16 16 16 16 17 17 17 18 18 18 18 18 18 18 18 18 18 18 18 19 19 19 19 19 19 19 18 19 19 19 19 20
14 14 13 13 12 12 11 10 9 7 6 5 4 3 2 2 1 1 2 3 4 5 6 7 8 9 10 10 11 12 12 13 14 14 15 15 15 16 16 16 17 17 18 18 18 18 19 19 19 18 18 18 18 18 18 18 19 19 19 19 19 19 19 18 19 19 19 20 20
12 11 11 11 11 11 10 9 8 7 5 5 4 3 2 1 0 1 3 4 5 6 7 8 9 10 10 11 12 12 13 14 14 15 15 15 15 16 16 17 17 18 18 18 19 19 19 19 19 19 18 18 18 18 19 19 19 19 19 19 19 19 19 19 19 19 20 20 21
10 10 10 10 10 10 10 9 7 6 5 4 3 2 1 0 1 3 4 5 6 7 8 9 10 10 11 12 13 13 14 14 15 15 15 15 16 16 17 17 17 18 18 19 19 19 19 19 19 19 19 19 19 19 19 19 19 19 19 19 18 18 19 19 19 19 20 20 21
10 10 10 10 10 9 9 8 7 6 5 3 2 1 0 1 2 4 5 6 7 8 9 9 10 11 12 12 13 13 14 14 15 15 15 16 16 17 17 17 18 18 18 19 19 19 18 18 18 19 19 19 19 20 20 20 20 19 19 18 18 18 18 19 19 19 20 20 21
10 10 10 10 9 8 8 7 6 5 4 3 1 0 1 2 3 4 5 6 7 8 9 10 11 12 12 13 13 14 14 14 15 15 16 16 16 17 17 17 18 18 19 19 18 18 18 18 18 19 19 20 20 21 21 20 19 19 18 18 18 18 18 19 19 20 20 21 21
10 10 9 9 8 7 6 6 5 4 3 2 1 1 2 3 4 4 5 6 8 9 10 11 12 12 12 13 13 13 14 14 15 15 16 16 16 17 17 18 18 19 19 18 18 18 18 18 19 19 20 20 21 21 21 20 18 17 17 17 17 17 18 19 19 20 21 21 21
10 9 9 8 7 6 5 4 3 2 1 0 1 2 2 3 4 5 6 7 8 9 10 11 12 13 13 13 13 13 14 14 15 15 16 16 17 17 18 18 19 19 19 18 18 18 18 18 19 19 20 21 21 21 20 19 17 16 16 16 17 17 18 19 20 21 21 21 21
9 9 8 7 6 5 4 3 1 1 1 1 2 2 2 3 4 5 6 7 8 10 11 12 13 13 13 13 13 13 14 15 15 15 16 16 17 18 18 18 19 18 18 18 18 18 18 18 18 19 20 20 20 20 19 18 17 16 16 17 17 18 19 20 21 21 21 21 21
9 8 8 7 6 4 3 1 1 1 1 2 2 2 3 3 4 5 6 7 9 10 11 12 13 13 13 13 13 14 14 15 15 16 16 17 17 18 18 18 18 18 18 18 18 18 18 18 18 19 19 20 20 19 18 17 17 17 17 18 19 20 20 21 21 21 21 21 21
8 8 7 6 5 3 2 0 1 2 2 2 2 2 3 4 5 6 7 8 9 10 12 13 13 13 13 14 14 14 14 15 16 16 17 17 18 18 18 18 18 18 17 17 17 17 18 18 18 19 19 19 19 19 18 18 18 18 18 19 20 21 22 22 21 20 20 20 21
8 7 6 5 4 2 1 0 1 2 2 2 2 3 3 4 5 6 7 8 9 11 12 13 13 14 14 14 14 14 15 15 16 17 17 17 17 18 18 17 17 17 17 17 17 17 18 18 19 19 19 19 19 19 18 18 18 19 19 20 21 23 24 23 22 20 18 18 18
7 6 6 4 3 2 1 1 2 2 2 2 2 3 4 4 5 6 7 8 10 11 12 13 13 13 14 14 14 15 16 16 17 17 17 17 17 17 17 17 17 17 17 17 18 18 19 19 19 19 19 19 19 19 19 19 19 19 19 21 22 24 24 24 22 19 16 15 15
7 6 5 4 3 2 2 1 2 2 2 2 3 3 4 5 5 6 7 9 10 11 12 12 13 13 14 14 15 16 16 16 16 17 17 17 17 17 17 17 17 17 17 18 19 19 19 19 19 18 18 19 19 19 19 19 19 19 19 20 22 22 22 21 18 15 13 13 15
6 6 5 4 4 3 2 1 2 2 2 2 3 3 4 5 6 7 8 9 10 11 12 12 13 13 14 15 15 16 16 16 16 16 16 16 17 17 17 17 17 17 18 18 19 19 19 19 19 18 19 19 19 19 19 19 19 19 19 20 20 19 17 15 14 13 13 15 16
7 6 6 5 4 3 2 2 2 2 2 2 3 3 4 5 6 7 8 9 11 11 12 13 13 14 14 15 15 16 16 16 16 16 16 17 17 17 17 17 17 17 18 19 19 19 18 18 18 18 18 18 18 19 19 19 19 19 20 19 17 14 13 14 14 15 16 17 18
7 6 6 5 4 3 2 2 2 2 2 3 3 4 5 6 7 8 9 10 11 12 13 13 14 14 15 15 15 15 15 16 16 17 17 17 17 17 17 17 17 17 18 19 18 17 17 17 17 18 18 18 18 18 18 18 19 20 19 17 14 13 14 16 17 18 19 19 20
6 6 5 4 3 3 2 2 2 2 2 3 4 4 5 6 8 9 10 11 12 13 13 13 14 15 15 15 15 15 15 16 16 17 17 17 17 17 17 17 17 17 18 18 18 17 17 17 17 17 17 17 18 18 18 18 19 19 17 15 14 15 16 17 18 19 19 20 20
5 5 5 4 3 2 2 2 2 3 3 4 4 5 6 7 9 10 11 12 13 13 13 14 14 15 15 15 15 15 15 16 16 17 17 17 18 17 17 17 17 18 18 18 17 17 17 17 17 17 17 17 18 18 18 18 18 17 16 16 17 18 18 18 18 19 19 20 20
4 4 4 3 3 3 3 3 3 3 4 4 5 6 7 8 10 11 12 12 13 13 14 14 14 15 15 15 15 15 16 16 16 17 17 17 18 18 18 18 18 18 18 18 17 17 17 17 16 17 17 17 18 18 18 18 17 17 17 18 19 20 20 19 19 18 19 19 19
3 3 3 3 3 3 3 3 4 4 4 5 6 7 8 9 10 11 12 13 13 14 14 14 15 15 15 15 15 15 16 16 17 17 17 18 18 18 18 18 18 18 18 18 17 17 17 16 16 17 17 18 18 18 18 17 17 17 18 19 20 20 19 18 17 17 17 18 18
4 4 4 4 4 4 4 4 4 4 5 6 6 7 8 9 11 12 13 13 13 14 14 15 15 15 15 15 15 16 16 17 17 17 18 18 18 18 18 18 18 18 18 18 17 16 16 16 16 17 18 18 18 18 17 17 17 18 18 19 19 19 17 16 15 15 16 17 18
4 4 4 4 4 4 4 4 5 5 5 6 7 8 9 10 11 12 13 13 14 14 15 15 15 15 15 15 16 16 17 17 17 18 18 18 19 18 18 18 18 18 18 17 16 16 16 16 17 17 18 18 18 18 17 17 17 18 18 18 17 16 15 14 14 15 16 17 18
4 5 5 5 5 5 5 5 5 5 6 6 7 9 10 11 12 12 13 13 14 15 15 15 15 15 16 16 16 17 17 18 18 18 18 18 19 18 18 18 18 18 17 16 15 15 16 16 17 18 19 19 18 17 17 17 17 17 16 15 15 14 14 15 15 16 17 18 18
5 5 5 5 5 5 5 5 5 6 6 7 8 9 11 11 12 13 13 14 14 15 15 15 16 16 16 16 17 17 18 18 18 18 18 18 18 18 18 18 18 17 17 16 15 15 15 16 18 19 19 19 18 17 17 17 16 15 14 14 14 15 16 17 18 18 18 18 18
5 5 5 5 5 5 5 5 6 6 7 8 9 10 11 12 12 13 13 14 15 15 15 15 16 16 16 17 17 18 18 18 18 18 18 17 17 17 18 18 17 17 16 15 14 15 16 17 18 19 20 19 17 16 16 16 16 15 14 15 16 17 17 18 19 19 19 19 19
5 5 5 5 5 5 6 6 7 7 8 9 10 10 11 11 12 13 13 14 15 15 15 15 15 16 16 16 17 17 18 18 18 17 17 17 17 17 17 17 17 16 15 14 14 15 16 17 19 19 19 18 17 16 15 15 15 15 16 16 17 18 19 19 19 19 19 19 19
6 6 6 5 6 6 6 7 7 8 9 9 10 10 11 11 12 13 14 14 15 15 15 15 16 16 16 16 16 16 16 16 17 16 16 16 16 17 17 16 16 15 14 14 14 15 17 18 19 19 19 17 16 15 15 15 15 16 17 18 19 20 20 20 19 18 18 18 19
6 6 6 6 6 6 7 7 8 8 9 9 10 10 11 11 12 13 14 14 15 15 16 16 16 16 16 16 16 15 15 15 16 16 16 16 16 16 16 15 15 14 14 14 15 16 17 19 19 19 18 17 16 15 15 16 16 17 18 19 20 20 20 20 19 19 18 19 19
6 6 6 6 6 6 7 7 8 8 9 9 9 10 10 11 12 13 14 14 15 15 15 16 15 15 15 15 15 15 14 15 15 16 16 16 15 15 14 14 14 14 15 16 16 17 18 19 19 19 17 16 16 16 16 16 17 18 19 19 20 20 20 20 20 20 20 20 19
6 5 5 6 6 6 7 7 7 8 8 9 9 10 10 11 12 13 14 14 14 14 15 15 15 15 14 14 14 14 14 15 15 15 15 15 15 14 14 14 14 15 17 17 17 18 18 19 19 18 16 15 16 16 16 16 17 18 18 19 20 21 21 21 21 21 21 21 20
5 5 5 6 6 6 6 7 7 8 8 9 9 9 10 11 12 13 13 13 13 13 14 14 14 14 14 13 14 14 15 15 15 15 15 15 15 14 14 15 16 17 19 20 19 19 19 19 18 17 16 15 16 16 16 16 17 17 18 19 20 21 22 22 22 21 21 22 20
5 5 5 6 6 6 6 7 7 7 8 8 8 9 10 11 12 12 13 13 13 13 13 13 13 13 13 13 14 14 15 15 15 15 15 15 15 15 16 17 18 19 20 21 20 19 18 18 16 15 15 15 15 15 15 16 17 17 18 19 20 21 22 22 21 21 21 21 20
Wind_Direction
145 146 146 146 145 143 142 142 145 147 150 152 151 151 154 154 150 145 139 130 120 114 111 112 106 60 333 324 324 326 328 331 335 339 343 347 349 349 349 348 347 345 344 342 341 340 338 337 335 334 334 333 332 331 331 330 330 329 328 327 326 325 324 323 323 322 322 321 321
143 144 144 143 143 142 141 140 141 143 146 149 150 151 151 149 144 135 128 121 118 120 124 130 140 308 320 324 326 328 331 335 339 342 345 347 347 347 346 345 344 343 342 341 340 339 338 337 335 334 333 332 331 331 331 330 329 329 328 327 326 325 324 323 323 322 321 321 320
140 140 140 140 140 140 138 137 137 138 139 141 143 143 142 139 134 129 125 124 126 133 143 158 272 312 323 328 330 333 336 340 343 344 345 345 345 344 343 343 342 341 341 340 339 338 337 336 334 334 333 332 331 331 331 330 329 329 328 327 326 325 324 324 323 321 321 320 320
136 136 136 136 136 135 134 133 133 133 133 134 134 134 133 131 130 129 130 133 139 148 172 289 313 322 328 333 337 341 343 345 345 344 343 343 343 343 343 341 341 341 340 339 339 338 336 335 334 333 333 332 331 331 331 330 329 328 327 326 326 325 324 323 322 322 321 320 320
132 132 132 131 130 129 127 127 126 126 127 128 130 130 131 132 133 135 139 144 151 184 311 320 327 331 335 339 343 347 348 347 345 344 343 343 343 343 342 341 340 340 339 339 338 337 336 334 333 332 332 332 331 331 330 329 328 327 325 325 324 324 324 323 322 322 321 320 319
129 129 128 127 125 123 120 119 120 123 126 131 134 136 138 138 140 142 144 146 335 332 332 333 335 338 341 345 348 349 349 348 347 346 345 345 344 343 342 341 340 339 339 338 337 336 335 333 332 332 331 331 331 330 329 328 327 326 325 324 324 324 324 323 323 322 321 320 319
128 127 125 124 122 121 120 120 123 127 133 138 141 142 140 141 141 137 116 16 350 343 341 339 340 342 345 347 349 349 349 348 348 347 346 345 343 342 341 340 339 339 338 337 336 335 333 332 331 331 330 330 330 329 329 328 327 326 325 324 324 324 324 324 323 323 322 321 320
129 128 127 126 125 125 125 127 130 134 139 143 144 142 140 137 130 106 48 5 353 347 343 342 344 345 347 349 349 350 350 349 348 347 345 343 342 341 340 339 339 339 338 336 335 334 332 331 331 330 330 330 330 329 328 327 326 326 325 325 324 325 325 324 324 323 323 321 320
132 132 132 133 132 132 131 132 135 139 142 143 142 140 137 131 119 85 23 2 350 345 345 346 346 348 349 350 351 350 350 348 347 345 343 341 340 339 339 339 339 338 337 335 334 333 332 331 331 330 330 330 329 329 328 327 326 325 325 325 324 324 324 324 324 323 322 321 320
135 137 139 140 140 139 138 138 139 141 142 141 139 138 136 130 120 32 359 353 349 347 348 349 349 350 351 351 351 351 349 346 344 342 340 340 339 339 339 338 337 336 335 334 333 332 332 331 330 330 330 329 329 328 327 326 325 325 324 324 324 324 323 323 323 322 321 320 319
136 140 144 146 147 146 145 140 139 140 140 140 139 139 139 133 50 357 350 349 350 351 352 353 352 352 352 351 350 348 346 343 341 339 339 339 339 339 338 337 336 335 334 333 333 332 331 331 330 330 329 328 327 326 326 325 324 323 323 323 323 322 322 322 322 321 320 320 319
135 139 144 148 150 150 148 144 141 141 142 143 143 141 139 78 355 349 349 351 352 354 356 356 354 353 351 349 346 344 342 340 338 338 338 339 339 338 337 335 334 333 333 333 332 332 331 330 329 328 328 327 326 325 325 324 323 322 322 321 321 321 321 320 321 320 320 319 318
132 135 140 143 147 148 148 147 146 147 149 149 149 146 98 349 344 347 349 352 355 357 357 357 354 351 348 345 343 340 339 337 337 337 338 338 337 336 335 334 333 332 332 332 332 331 330 329 328 326 325 325 324 324 324 323 322 322 321 320 320 319 318 318 319 319 319 318 317
130 132 135 138 140 143 145 146 149 154 157 159 164 185 338 341 344 347 351 354 356 357 356 354 351 348 345 342 340 338 337 337 337 336 336 336 335 334 333 332 332 332 332 331 331 330 329 327 326 325 324 323 323 323 323 322 322 321 319 318 317 316 315 315 316 315 315 314 314
129 131 133 135 138 140 143 145 150 155 163 172 205 317 337 344 348 351 352 354 354 354 353 350 348 345 342 340 338 337 336 336 336 335 334 333 333 332 332 332 332 332 331 331 329 328 327 325 324 323 322 322 322 322 322 322 321 319 318 316 314 313 311 311 311 310 310 310 310
132 134 136 140 143 145 146 145 146 147 148 114 336 342 346 351 353 351 350 349 349 349 348 346 345 343 341 339 338 337 336 335 334 333 332 332 332 332 332 332 332 332 331 330 328 327 325 324 322 321 321 320 321 321 322 321 320 318 316 313 311 309 307 306 306 305 305 306 306
139 142 145 149 152 152 149 141 130 89 24 4 357 356 355 354 351 348 346 344 344 344 344 343 342 341 340 339 338 337 335 333 332 331 331 331 331 332 332 332 332 331 330 329 327 325 324 322 321 320 320 320 320 321 321 320 318 316 313 311 309 306 304 303 302 302 302 304 304
148 150 154 157 158 156 150 132 65 12 3 359 359 359 355 350 344 342 340 339 339 339 339 340 340 339 339 338 337 335 333 331 331 330 331 331 331 332 332 332 331 330 329 327 326 324 323 321 320 320 319 319 319 319 319 317 315 313 311 310 308 305 302 300 299 300 301 302 305
156 158 162 165 166 164 160 104 4 357 357 359 2 358 351 345 339 337 335 334 335 335 336 336 337 337 336 335 334 332 331 330 330 330 331 331 331 331 331 331 330 330 328 327 325 324 323 322 321 320 319 319 318 318 316 314 312 311 310 309 307 305 301 298 297 297 300 303 307
165 168 171 174 178 185 198 318 346 356 2 5 3 355 346 339 335 332 331 331 331 332 333 333 334 334 333 332 330 329 329 329 329 330 331 331 331 331 331 331 330 329 328 327 326 325 324 323 322 321 320 319 318 316 315 313 312 311 310 309 308 305 302 298 295 296 300 308 314
174 178 182 187 196 206 236 309 343 359 7 6 358 349 340 333 329 329 328 328 328 329 330 331 331 331 329 328 328 328 328 329 330 330 331 331 331 331 331 331 330 329 328 328 327 326 325 323 322 321 320 319 317 316 315 314 313 311 310 309 308 306 304 300 298 299 306 317 325
183 188 194 200 209 224 255 308 344 2 5 358 350 340 332 327 326 326 326 325 326 327 328 328 328 327 326 326 327 328 328 329 330 331 331 331 331 332 331 331 330 329 329 328 328 326 325 324 322 321 320 319 318 317 316 314 312 310 308 307 306 306 306 306 306 310 317 326 329
193 198 203 209 218 232 258 304 341 356 357 347 339 330 324 322 322 323 324 324 325 325 326 325 325 325 325 326 327 328 329 330 331 331 332 332 332 332 332 331 331 330 329 329 328 327 325 323 322 321 321 319 317 316 315 313 311 308 306 303 302 305 311 319 322 323 325 326 328
200 203 207 213 221 233 256 296 331 344 341 336 327 322 319 318 319 321 321 323 323 323 323 323 323 324 325 326 328 329 331 331 332 332 332 333 333 333 332 332 331 330 329 329 328 327 324 322 321 320 319 317 315 314 313 312 310 307 303 299 300 310 323 329 328 326 325 326 326
202 204 207 212 220 234 257 289 319 327 326 320 315 313 313 315 317 318 320 321 321 322 322 322 323 324 325 327 329 331 332 333 333 333 333 333 333 333 333 332 331 330 329 329 329 325 321 319 319 318 317 315 314 313 312 311 309 306 303 300 307 319 326 326 324 323 323 323 323
198 200 204 211 222 238 259 284 303 308 306 303 303 306 310 312 315 317 319 320 321 322 322 323 324 325 327 328 330 332 333 333 333 333 333 333 334 333 333 332 331 330 330 330 328 324 320 320 319 318 317 316 316 316 315 313 311 308 306 307 315 320 321 320 319 318 318 318 318
192 196 204 215 228 244 262 279 286 289 289 293 299 304 308 310 314 317 319 321 322 323 323 324 325 327 328 330 331 332 333 334 334 334 333 333 333 333 332 332 332 331 331 331 326 322 321 322 321 320 319 319 320 319 319 317 315 313 312 313 316 316 315 314 313 313 314 314 315
194 200 211 225 236 248 260 269 273 277 283 290 297 302 306 310 315 318 321 323 324 325 326 327 327 328 329 331 332 333 333 334 334 334 333 333 332 332 332 331 332 332 332 330 325 322 321 322 322 322 322 322 323 324 323 322 319 317 316 315 315 313 311 309 309 310 311 312 315
207 214 225 234 243 251 257 263 269 275 283 290 295 300 306 312 317 321 323 325 326 327 328 329 329 330 331 332 333 333 333 333 333 333 333 332 331 331 331 331 331 332 332 330 325 322 321 322 323 323 324 325 326 326 325 323 321 319 318 317 314 311 307 305 306 308 310 313 317
219 225 234 241 247 253 257 262 268 275 282 288 294 300 307 314 320 323 326 327 328 329 330 330 330 331 332 333 333 333 333 333 333 333 332 331 330 330 330 331 331 332 333 331 325 322 321 322 324 325 326 327 326 325 324 323 322 322 321 319 316 311 307 307 309 311 313 316 320
225 232 239 246 250 254 257 261 267 273 280 287 295 303 310 317 322 325 327 328 329 329 330 330 331 332 333 333 333 333 333 333 333 333 332 331 330 329 330 331 332 333 333 331 326 322 321 323 325 326 326 325 324 323 322 322 323 324 324 324 322 321 321 323 321 320 320 323 326
229 236 242 246 248 250 253 258 264 272 280 290 298 306 314 319 323 326 328 328 329 330 331 332 333 333 333 334 333 333 332 332 332 332 332 331 329 329 329 331 332 333 333 331 325 322 322 324 325 326 326 325 324 322 321 321 323 326 330 334 337 338 338 335 330 327 327 328 330
230 234 238 240 242 245 249 257 265 275 285 294 302 309 315 320 323 326 327 328 329 331 332 333 334 334 334 333 333 332 332 332 332 332 332 331 330 329 330 332 333 333 333 330 324 322 323 324 326 326 325 325 323 321 321 323 327 333 339 343 344 342 339 334 330 328 329 330 331
225 227 230 234 239 245 253 262 272 282 291 299 305 311 315 319 322 325 327 329 330 332 333 334 334 334 333 332 332 331 331 332 332 332 332 332 331 331 331 332 333 333 332 329 325 323 324 325 326 326 326 325 323 322 323 327 333 338 341 341 340 338 335 331 327 325 325 327 329
221 225 230 236 244 253 262 272 280 288 295 301 306 310 314 317 321 324 328 331 332 333 334 334 334 333 332 332 332 332 332 333 333 334 335 334 334 332 332 333 332 332 331 329 326 325 325 326 326 326 326 325 323 323 326 331 336 337 337 336 335 334 331 328 324 322 321 323 325
223 229 235 243 253 262 271 279 286 292 297 302 306 309 313 316 321 325 330 332 333 334 334 334 334 333 333 333 334 334 335 336 336 337 337 337 336 334 333 333 333 332 332 330 327 326 326 326 326 326 325 324 322 324 329 334 335 335 333 332 332 331 329 327 324 322 321 322 323
228 234 242 251 261 270 278 285 291 295 299 302 305 308 311 316 322 328 331 334 334 334 334 334 334 335 335 335 336 337 339 340 340 340 339 338 337 336 335 335 334 333 333 332 329 327 326 326 326 325 325 323 323 326 330 332 332 331 330 329 329 328 327 327 326 326 326 325 325
232 240 250 260 270 279 286 290 294 296 299 301 303 307 312 318 324 330 333 335 335 334 334 334 335 336 337 338 338 340 341 342 342 340 339 338 338 338 338 337 335 334 333 332 330 328 327 326 325 324 323 323 323 324 326 327 328 328 328 328 327 327 327 328 329 330 330 329 326
236 248 260 272 281 287 291 294 296 297 298 300 303 308 315 322 328 332 334 335 334 334 334 335 336 337 338 338 339 340 341 340 339 338 339 339 340 341 340 338 335 333 332 332 331 329 327 325 323 322 322 322 322 321 323 325 327 329 329 329 328 327 327 328 329 329 330 331 326
244 259 273 283 289 292 294 295 295 296 297 299 305 312 320 326 330 332 333 333 333 333 334 335 336 337 338 339 340 340 338 337 336 337 339 341 342 342 340 337 334 332 332 331 330 328 326 324 323 322 321 321 320 320 324 328 331 331 330 329 328 326 325 325 326 326 327 329 326
255 271 282 288 292 293 294 293 293 294 296 302 310 318 325 329 331 332 332 332 333 334 335 335 336 337 338 339 339 337 336 336 336 338 340 342 342 340 338 336 334 333 331 331 330 329 327 325 324 323 321 320 320 323 328 332 332 330 328 326 325 323 321 321 322 322 323 324 324
Height
831 832 834 834 835 836 837 838 839 840 841 842 842 843 844 845 846 846 847 848 848 848 848 849 849 849 849 849 848 848 848 847 847 846 846 845 845 844 844 844 843 843 843 842 842 842 841 841 841 840 840 840 839 839 839 839 838 838 837 837 836 835 835 834 834 834 833 832 832
832 833 834 835 836 837 838 839 839 840 841 842 843 844 844 845 846 847 847 847 848 848 848 849 849 849 848 848 848 847 847 846 846 845 845 844 844 844 844 843 843 842 842 842 841 841 841 840 840 840 839 839 839 839 838 838 837 837 836 835 835 834 834 833 833 832 832 831 831
833 834 834 835 836 837 838 839 840 841 842 843 843 844 845 845 846 847 847 847 848 848 848 848 848 848 848 848 847 847 846 846 845 845 844 844 844 843 843 843 842 842 841 841 841 840 840 840 839 839 839 838 838 838 837 837 836 835 835 834 834 833 833 832 832 831 831 830 830
833 834 835 836 837 838 839 839 840 841 842 843 844 844 845 846 846 847 847 847 847 848 848 848 848 848 847 847 846 846 845 845 844 844 844 844 843 843 842 842 842 841 841 840 840 840 839 839 839 839 838 838 837 837 836 835 835 834 834 833 833 832 832 831 831 830 829 829 829
834 834 835 836 837 838 839 840 841 842 843 843 844 845 845 846 846 847 847 847 847 847 847 847 847 847 847 846 846 845 845 844 844 844 843 843 842 842 842 841 841 840 840 840 839 839 839 839 838 838 837 837 836 835 835 834 834 833 833 832 832 831 830 830 829 829 829 828 827
834 835 836 837 837 838 839 840 841 842 843 844 844 845 845 846 846 846 847 847 847 847 847 847 846 846 846 845 845 844 844 844 843 843 843 842 842 841 841 841 840 840 839 839 839 839 838 838 837 837 836 836 835 834 834 833 833 832 831 831 830 830 829 829 828 828 827 827 826
834 835 836 837 838 839 840 841 842 843 843 844 844 845 845 846 846 846 846 846 846 846 846 846 846 845 845 844 844 844 844 843 843 842 842 841 841 841 840 840 839 839 839 839 838 838 837 837 836 835 835 834 834 833 833 832 831 831 830 829 829 829 828 828 827 827 826 825 825
835 836 836 837 839 839 840 841 842 843 844 844 845 845 845 846 846 846 846 846 846 846 846 845 845 845 844 844 844 843 843 842 842 841 841 841 840 840 840 839 839 839 838 838 837 837 836 836 835 834 834 833 833 832 831 831 830 829 829 829 828 828 827 827 826 825 825 824 824
835 836 837 838 839 840 841 842 843 843 844 844 845 845 845 845 846 846 846 846 845 845 845 845 844 844 844 843 843 842 842 841 841 841 840 840 840 839 839 839 838 838 837 837 836 836 835 834 834 834 833 832 832 831 830 830 829 829 828 828 827 827 826 826 825 824 824 823 823
836 837 838 839 839 840 841 842 843 843 844 844 844 845 845 845 845 845 845 845 845 845 844 844 844 844 843 843 842 842 841 841 840 840 840 839 839 839 838 838 837 837 836 836 835 835 834 834 833 832 832 831 831 830 829 829 828 828 827 827 826 825 825 825 824 824 823 822 822
836 837 838 839 840 841 842 842 843 843 844 844 844 845 845 845 845 845 845 844 844 844 844 844 843 843 842 842 842 841 841 840 840 840 839 839 839 838 838 837 837 836 835 835 834 834 833 833 832 831 831 830 830 829 829 828 828 827 826 826 825 824 824 824 823 823 822 821 820
837 838 839 840 840 841 842 842 843 843 844 844 844 844 844 844 844 844 844 844 844 844 843 843 843 842 842 841 841 841 840 840 839 839 839 838 838 837 837 836 836 835 835 834 834 833 832 832 831 830 830 829 829 829 828 827 827 826 825 825 824 824 823 822 822 821 821 820 819
838 839 839 840 841 841 842 843 843 843 844 844 844 844 844 844 844 844 844 844 843 843 843 842 842 841 841 841 840 840 840 839 839 839 838 838 837 837 836 836 835 834 834 833 833 832 831 831 830 829 829 829 828 828 827 826 826 825 824 824 823 823 822 822 821 820 820 819 819
839 839 840 840 841 842 842 843 843 843 843 843 844 844 844 844 844 843 843 843 843 842 842 842 841 841 841 840 840 839 839 839 838 838 837 837 836 836 835 835 834 834 833 833 832 831 831 830 829 829 828 828 827 827 826 825 825 824 824 823 822 822 821 821 820 819 819 818 817
839 839 840 841 841 842 842 842 843 843 843 843 843 843 843 843 843 843 843 842 842 842 841 841 841 840 840 840 839 839 839 838 838 837 837 836 836 835 835 834 834 833 832 832 831 831 830 829 829 828 828 827 826 826 825 824 824 823 823 822 821 821 820 819 819 818 818 817 816
839 840 840 841 841 841 842 842 842 842 842 842 843 843 843 843 842 842 842 842 841 841 841 841 840 840 840 839 839 839 838 838 837 836 836 835 835 834 834 834 833 832 832 831 830 830 829 829 828 828 827 826 825 825 824 824 823 822 822 821 821 820 819 819 818 817 816 815 815
839 840 840 840 841 841 841 841 842 842 842 842 842 842 842 842 842 842 841 841 841 841 840 840 840 839 839 839 838 838 837 837 836 836 835 835 834 834 833 833 832 831 831 830 829 829 829 828 827 827 826 825 824 824 823 823 822 821 821 820 819 819 818 817 816 816 815 814 814
839 839 840 840 840 841 841 841 841 841 841 841 842 842 841 841 841 841 841 841 840 840 840 839 839 839 839 838 838 837 837 836 836 835 835 834 834 833 833 832 831 831 830 829 829 828 828 827 826 826 825 824 824 823 822 821 821 820 819 819 818 817 817 816 815 814 814 813 813
839 839 839 840 840 840 840 841 841 841 841 841 841 841 841 841 841 840 840 840 840 840 839 839 839 839 838 838 837 837 836 836 835 835 834 834 833 833 832 831 831 830 829 829 828 827 827 826 825 824 824 823 822 822 821 820 820 819 818 818 817 816 815 814 814 813 813 813 812
839 839 839 839 840 840 840 840 840 841 841 841 841 840 840 840 840 840 840 840 839 839 839 839 838 838 838 837 837 836 836 835 835 834 834 833 833 832 831 830 830 829 829 828 827 826 826 825 824 824 823 822 821 820 820 819 819 818 817 816 815 814 813 812 812 812 812 812 811
838 839 839 839 839 840 840 840 840 840 840 840 840 840 840 840 840 839 839 839 839 839 839 838 838 837 837 837 836 836 835 835 834 834 833 832 832 831 830 830 829 828 828 827 826 825 824 824 823 822 821 821 820 819 819 818 817 816 815 814 814 813 812 811 810 810 811 811 810
838 839 839 839 839 839 839 839 840 840 840 839 839 839 839 839 839 839 839 839 839 838 838 838 837 837 836 836 835 835 834 834 834 833 832 832 831 830 830 829 828 827 827 826 825 824 824 823 822 821 820 819 819 818 817 816 815 814 814 813 812 811 811 810 810 810 810 809 809
838 838 839 839 839 839 839 839 839 839 839 839 839 839 839 839 839 839 839 839 838 838 838 837 837 836 836 835 835 834 834 833 833 832 832 831 830 829 829 828 827 827 826 825 824 823 822 821 820 820 819 818 817 816 816 815 814 814 813 812 811 810 810 809 809 809 808 807 807
838 838 838 838 839 839 839 839 839 839 839 839 839 839 839 839 839 838 838 838 838 837 837 837 836 836 835 835 834 834 833 833 832 831 831 830 829 829 828 827 827 826 825 824 823 822 821 820 819 819 818 817 816 815 815 814 813 813 812 810 809 809 808 808 807 807 806 806 805
837 837 838 838 838 838 838 838 838 838 838 838 838 838 838 838 838 838 838 837 837 837 836 836 836 835 835 834 834 833 833 832 831 830 830 829 829 828 827 826 826 825 824 823 822 822 821 820 819 818 817 816 815 814 814 813 812 811 810 809 808 808 807 806 806 805 805 804 804
837 837 837 837 837 837 838 838 838 838 838 838 838 838 838 838 838 837 837 837 836 836 836 835 835 834 834 833 833 832 832 831 830 830 829 828 828 827 826 825 825 824 823 822 821 821 820 819 818 817 816 815 814 813 812 811 811 810 809 808 807 807 806 805 805 804 804 804 803
836 836 837 837 837 837 837 837 837 837 837 837 837 837 837 837 837 837 836 836 836 835 835 834 834 834 833 833 832 831 831 830 830 829 828 827 827 826 825 824 824 823 822 821 820 820 819 818 817 816 815 814 813 812 811 810 809 809 808 807 806 806 805 804 804 803 803 802 802
836 836 836 836 836 836 836 837 837 837 837 837 837 837 837 837 836 836 836 835 835 835 834 834 833 833 832 832 831 831 830 829 829 828 827 827 826 825 824 824 823 822 821 820 819 819 818 817 816 815 814 813 812 811 810 809 808 808 807 806 805 804 804 803 803 802 801 801 800
835 835 835 836 836 836 836 836 836 836 836 836 836 836 836 836 836 836 835 835 834 834 834 833 833 832 831 831 830 830 829 829 828 827 826 826 825 824 823 822 822 821 820 819 819 818 817 816 815 814 813 812 811 810 809 808 807 806 805 805 804 803 803 802 801 801 800 799 799
835 835 835 835 835 835 836 836 836 836 836 836 836 836 836 836 835 835 835 834 834 833 833 832 832 831 831 830 829 829 828 828 827 826 825 824 824 823 822 821 820 820 819 818 817 817 816 815 814 813 812 811 810 809 808 807 806 805 804 804 803 802 801 800 800 800 799 798 797
834 834 835 835 835 835 835 835 835 835 835 835 835 835 835 835 835 834 834 834 833 833 832 831 831 830 830 829 829 828 827 827 826 825 824 824 823 822 821 820 819 819 818 817 816 816 815 814 813 812 811 810 809 808 807 806 805 804 804 803 802 801 800 800 799 799 798 797 796
834 834 834 834 835 835 835 835 835 835 835 835 835 835 834 834 834 834 833 833 832 832 831 831 830 829 829 828 828 827 826 826 825 824 824 823 822 821 820 819 819 818 817 816 815 815 814 813 812 811 810 809 808 807 806 805 804 804 803 802 801 801 800 799 799 798 797 796 795
834 834 834 834 834 834 834 834 834 834 834 834 834 834 834 834 833 833 833 832 832 831 830 830 829 829 828 827 827 826 825 825 824 823 822 822 821 820 819 818 817 817 816 815 814 814 813 812 811 810 809 808 807 806 804 804 803 803 802 801 800 800 799 798 798 797 796 795 794
833 833 834 834 834 834 834 834 834 834 834 834 834 834 833 833 833 832 832 831 831 830 830 829 829 828 827 827 826 825 824 824 823 822 821 820 819 819 818 817 816 815 815 814 814 813 812 811 810 809 808 807 806 804 804 803 802 801 801 800 799 799 798 797 796 795 794 794 793
833 833 833 833 833 833 833 833 833 833 833 833 833 833 833 832 832 831 831 830 830 829 829 828 828 827 826 826 825 824 824 823 822 821 820 819 819 818 817 816 815 814 814 813 813 812 811 810 809 808 807 806 805 804 803 802 801 800 799 799 798 797 797 796 795 794 793 792 792
832 832 832 833 833 833 833 833 833 833 833 832 832 832 832 831 831 831 830 830 829 829 828 828 827 826 825 825 824 824 823 822 821 820 819 819 818 817 816 815 814 814 813 812 812 811 810 809 808 807 806 805 804 802 801 801 800 799 798 798 797 796 795 794 793 793 792 791 790
831 832 832 832 832 832 832 832 832 832 832 832 831 831 831 831 830 830 829 829 828 828 827 827 826 825 824 824 823 823 822 821 820 819 819 818 817 816 815 814 813 813 812 811 811 810 809 808 807 806 805 804 803 801 800 799 799 798 797 796 795 795 794 793 792 791 790 790 789
831 831 831 831 831 831 831 831 831 831 831 831 831 830 830 830 829 829 829 828 828 827 826 825 825 824 824 823 822 822 821 820 819 819 818 817 816 815 814 813 812 812 811 810 809 809 808 807 806 805 804 803 801 800 799 799 798 797 796 795 794 794 793 792 791 790 789 789 788
830 830 831 831 831 831 831 831 831 830 830 830 830 830 829 829 829 828 828 827 827 826 825 825 824 824 823 822 821 821 820 819 819 818 817 816 815 814 814 813 812 811 810 809 808 807 806 805 804 804 803 801 800 799 799 798 797 796 795 794 793 792 791 790 789 789 788 787 787
830 830 830 830 830 830 830 830 830 830 830 829 829 829 829 828 828 828 827 827 826 825 825 824 823 823 822 821 821 820 819 819 818 817 816 815 815 814 813 812 811 810 809 808 807 806 805 804 803 802 801 800 799 798 797 796 796 795 794 793 792 791 790 789 788 788 787 786 786
829 829 829 829 829 829 829 829 829 829 829 829 829 828 828 828 827 827 826 826 825 825 824 823 823 822 821 821 820 819 818 818 817 816 816 815 814 813 812 811 810 809 808 807 806 805 804 803 802 801 800 799 799 797 796 795 795 794 793 792 791 790 789 788 787 786 786 785 784